Columbia, MO

4:01 PM CDT on June 22, 2017 (GMT -0500)
Columbia Regional

Weather History for KCOU - October, 2012

Change the Weather History Date:

Wednesday, October 17, 2012

  Actual Average Record
Temperature  
Mean Temperature 56 °F 56 °F  
Max Temperature 63 °F 67 °F 90 °F (2016)
Min Temperature 49 °F 45 °F 26 °F (1976)
Degree Days  
Heating Degree Days 9 10  
Month to date heating degree days 165 131  
Since 1 July heating degree days 214 199  
Cooling Degree Days 0 0  
Month to date cooling degree days 3 15  
Year to date cooling degree days 1867 1242  
Growing Degree Days 6 (Base 50)    
Moisture  
Dew Point 54 °F    
Average Humidity 75    
Maximum Humidity 97    
Minimum Humidity 52    
Precipitation  
Precipitation 0.43 in 0.11 in 2.72 in (1946)
Month to date precipitation 2.06 1.92  
Year to date precipitation 27.13 35.54  
Snow  
Snow 0.00 in 0.00 in 0.00 in (2015)
Month to date snowfall 0.0 0.0  
Since 1 July snowfall 0.0 0.0  
Since 1 September snowfall 0.0 0.0  
Snow Depth 0.00 in    
Sea Level Pressure  
Sea Level Pressure 29.50 in    
Wind  
Wind Speed 9 mph (SW)    
Max Wind Speed 24 mph    
Max Gust Speed 35 mph    
Visibility 6 miles    
Events Rain , Thunderstorm    
T = Trace of Precipitation, MM = Missing Value Source: NWS Daily Summary

Daily Weather History Graph

Daily Weather History Graph

Search for Another Location

Airport or City:

Trip Planner

Search our weather history database for the weather conditions in past years. The results will help you decide how hot, cold, wet, or windy it might be!

Date:

Astronomy

Oct. 17, 2012 Rise Set
Actual Time 7:20 AM CDT 6:26 PM CDT
Civil Twilight 6:53 AM CDT 6:53 PM CDT
Nautical Twilight 6:22 AM CDT 7:24 PM CDT
Astronomical Twilight 5:52 AM CDT 7:55 PM CDT
Moon 9:53 AM CDT (10/17) 8:05 PM CDT (10/17)
Length of Visible Light 11h 59m
Length of Day
11h 06m
Waxing Crescent, 7% of the Moon is Illuminated
Oct 17
Waxing Crescent
Oct 21
First Quarter
Oct 29
Full
Nov 6
Last Quarter
Nov 13
New

Hourly Weather History & Observations

Time (CDT) Temp. Dew Point Humidity Pressure Visibility Wind Dir Wind Speed Gust Speed Precip Events Conditions
12:54 AM 63.0 °F 45.0 °F 52% 29.58 in 10.0 mi South 10.4 mph - N/A   Clear
1:54 AM 61.0 °F 45.0 °F 56% 29.57 in 10.0 mi South 10.4 mph - N/A   Clear
2:54 AM 61.0 °F 46.0 °F 58% 29.56 in 10.0 mi South 11.5 mph - N/A   Clear
3:54 AM 59.0 °F 46.9 °F 64% 29.54 in 10.0 mi South 10.4 mph - N/A   Clear
4:54 AM 59.0 °F 48.0 °F 67% 29.53 in 10.0 mi South 10.4 mph - N/A   Clear
5:54 AM 59.0 °F 50.0 °F 72% 29.52 in 10.0 mi SSE 10.4 mph - N/A   Clear
6:54 AM 57.0 °F 50.0 °F 77% 29.52 in 10.0 mi SSE 9.2 mph - N/A   Clear
7:54 AM 57.9 °F 51.1 °F 78% 29.50 in 10.0 mi SSE 11.5 mph - N/A   Clear
8:45 AM 60.8 °F 53.6 °F 77% 29.53 in 10.0 mi South 10.4 mph - N/A   Mostly Cloudy
8:54 AM 60.1 °F 53.1 °F 78% 29.51 in 10.0 mi South 10.4 mph - N/A   Overcast
9:54 AM 61.0 °F 54.0 °F 78% 29.51 in 10.0 mi South 10.4 mph - N/A   Overcast
10:54 AM 60.1 °F 55.9 °F 86% 29.50 in 4.0 mi South 10.4 mph - N/A   Overcast
11:04 AM 60.8 °F 55.4 °F 82% 29.51 in 2.0 mi South 8.1 mph - 0.00 in Rain Light Rain
11:09 AM 60.8 °F 57.2 °F 88% 29.51 in 1.8 mi South 9.2 mph - 0.01 in Rain Light Rain
11:14 AM 60.8 °F 57.2 °F 88% 29.51 in 1.8 mi South 9.2 mph - 0.01 in Rain Light Rain
11:30 AM 60.8 °F 57.2 °F 88% 29.51 in 1.5 mi South 9.2 mph - 0.02 in Rain Light Rain
11:44 AM 60.8 °F 57.2 °F 88% 29.51 in 2.0 mi South 9.2 mph - 0.04 in Rain Light Rain
11:54 AM 60.1 °F 57.9 °F 93% 29.49 in 3.0 mi South 9.2 mph - 0.04 in Rain Light Rain
12:10 PM 60.8 °F 57.2 °F 88% 29.50 in 4.0 mi South 11.5 mph - 0.00 in   Overcast
12:29 PM 60.8 °F 57.2 °F 88% 29.49 in 2.5 mi South 8.1 mph - 0.01 in Rain Light Rain
12:34 PM 60.8 °F 57.2 °F 88% 29.49 in 1.8 mi South 9.2 mph - 0.01 in Rain Light Rain
12:45 PM 60.8 °F 59.0 °F 94% 29.48 in 2.0 mi South 6.9 mph - 0.01 in Rain Light Rain
12:54 PM 60.1 °F 59.0 °F 96% 29.47 in 2.5 mi SW 4.6 mph - 0.02 in Rain Light Rain
1:02 PM 60.8 °F 59.0 °F 94% 29.48 in 2.5 mi Variable 3.5 mph - 0.00 in Rain Light Rain
1:54 PM 61.0 °F 60.1 °F 97% 29.44 in 6.0 mi South 3.5 mph - 0.02 in   Overcast
2:54 PM 62.1 °F 60.1 °F 93% 29.43 in 3.0 mi West 13.8 mph - 0.03 in Rain Light Rain
3:09 PM 62.6 °F 60.8 °F 94% 29.45 in 2.0 mi West 13.8 mph - 0.05 in Rain Rain
3:14 PM 62.6 °F 60.8 °F 94% 29.44 in 3.0 mi West 12.7 mph - 0.07 in Rain , Thunderstorm Thunderstorms and Rain
3:54 PM 61.0 °F 59.0 °F 93% 29.42 in 4.0 mi NW 6.9 mph - 0.14 in Rain Light Rain
4:00 PM 60.8 °F 59.0 °F 94% 29.43 in 2.5 mi NW 6.9 mph - 0.01 in Rain Rain
4:16 PM 60.8 °F 59.0 °F 94% 29.40 in 6.0 mi NE 6.9 mph - 0.06 in Rain Light Rain
4:54 PM 62.1 °F 60.1 °F 93% 29.43 in 8.0 mi WSW 9.2 mph - 0.07 in   Mostly Cloudy
5:07 PM 62.6 °F 59.0 °F 88% 29.45 in 3.0 mi West 12.7 mph 19.6 mph 0.00 in Rain Rain
5:09 PM 62.6 °F 59.0 °F 88% 29.46 in 1.8 mi WNW 18.4 mph 23.0 mph 0.01 in Rain Rain
5:18 PM 59.0 °F 57.2 °F 94% 29.47 in 1.8 mi WNW 23.0 mph 28.8 mph 0.11 in Rain Light Rain
5:20 PM 59.0 °F 57.2 °F 94% 29.47 in 4.0 mi WNW 19.6 mph 28.8 mph 0.11 in Rain Light Rain
5:27 PM 59.0 °F 55.4 °F 88% 29.48 in 10.0 mi WNW 20.7 mph 33.4 mph 0.11 in Rain Light Rain
5:43 PM 57.2 °F 53.6 °F 88% 29.49 in 10.0 mi WNW 18.4 mph 28.8 mph 0.11 in   Overcast
5:54 PM 55.9 °F 51.1 °F 84% 29.49 in 10.0 mi NW 15.0 mph - 0.11 in   Overcast
6:54 PM 53.1 °F 51.1 °F 93% 29.53 in 10.0 mi West 9.2 mph - N/A   Clear
7:54 PM 53.1 °F 50.0 °F 89% 29.55 in 10.0 mi West 9.2 mph - N/A   Clear
8:54 PM 53.1 °F 48.9 °F 86% 29.55 in 10.0 mi WNW 9.2 mph - N/A   Clear
9:54 PM 52.0 °F 46.0 °F 80% 29.58 in 10.0 mi West 8.1 mph - N/A   Clear
10:54 PM 50.0 °F 44.1 °F 80% 29.60 in 10.0 mi West 8.1 mph - N/A   Clear
11:54 PM 50.0 °F 42.1 °F 74% 29.61 in 10.0 mi West 8.1 mph - N/A   Partly Cloudy